Find Starlink 37550

NORAD ID: 100277 Int'l Des: 2026-183 Owner: SPXS Country: US Constellation: starlink operational

現在のビュー

3D地球を読み込み中...

About Starlink 37550

Starlink 37550 (NORAD 100277) is a starlink constellation satellite launched Aug 11, 2026 by SPXS of US. with a mass of 575.00 kg.

次回通過

Passes for default location (London). Set your location on the main map for personalized predictions.

高度履歴

Loading altitude history...

軌道要素

1 A0277U 26183F 26254.53715581 .00181219 00000-0 11622-2 0 9996
2 A0277 53.1551 301.7357 0001133 78.8473 281.2675 15.75218927 4898
Epoch: Sep 11, 2026 • Age: 10 hours

現在のステータス

高度 354.0 km
遠地点 / 近地点 N/A
速度 7.70 km/s
衛星直下点 -31.72°S, 171.69°E
打ち上げ日 Aug 11, 2026
運用期間 31 days
タイプ internet

技術仕様

分類 Payload
質量 575.00 kg
乾燥質量 530.00 kg
総質量 575.00 kg
長さ 0.30 m
直径 4.10 m
スパン 29.00 m
形状 Box + pan
製造者 SPXS
バスタイプ Starlink V2MO
フェーズステータス In Orbit
所有者/国 SPXS/US

Most Searched